• Em Portugal
  • Lista de países
  • Para 7 dias
  • Temperatura da água
  • Mapas de satélite
  • Mapa do tempo
  • Widgets de tempo
  • user-avatar
    Iniciar Sessão

    Previsão horária em Lalitpur

    Hoje, 19 Fevereiro, Segunda-feira

    Tempo Temperatura Precipitação Vento Pressão Humidade
    00:00 +11°C° 0 mm 1 m/s 649 mmHg 76%
    01:00 +11°C° 0 mm 1 m/s 649 mmHg 75%
    02:00 +11°C° 0 mm 1 m/s 649 mmHg 74%
    03:00 +9°C° 0 mm 2 m/s 649 mmHg 72%
    04:00 +9°C° 0 mm 2 m/s 649 mmHg 70%
    05:00 +9°C° 0 mm 2 m/s 649 mmHg 67%
    06:00 +9°C° 0 mm 2 m/s 649 mmHg 64%
    07:00 +12°C° 0 mm 2 m/s 650 mmHg 56%
    08:00 +15°C° 0 mm 1 m/s 651 mmHg 48%
    09:00 +18°C° 0 mm 1 m/s 651 mmHg 39%
    10:00 +19°C° 0 mm 1 m/s 652 mmHg 36%
    11:00 +20°C° 0 mm 2 m/s 652 mmHg 33%
    12:00 +21°C° 0 mm 2 m/s 652 mmHg 29%
    13:00 +21°C° 0 mm 2 m/s 652 mmHg 30%
    14:00 +21°C° 0 mm 3 m/s 651 mmHg 32%
    15:00 +21°C° 0 mm 3 m/s 651 mmHg 33%
    16:00 +19°C° 0 mm 2 m/s 650 mmHg 39%
    17:00 +18°C° 0 mm 2 m/s 650 mmHg 45%
    18:00 +16°C° 0 mm 1 m/s 650 mmHg 52%
    19:00 +15°C° 0 mm 1 m/s 650 mmHg 54%
    20:00 +13°C° 0 mm 1 m/s 650 mmHg 56%
    21:00 +12°C° 0 mm 1 m/s 650 mmHg 58%
    22:00 +12°C° 0 mm 2 m/s 650 mmHg 56%
    23:00 +12°C° 0 mm 2 m/s 650 mmHg 55%

    Amanhã, 20 Fevereiro, Terça-feira

    Tempo Temperatura Precipitação Vento Pressão Humidade
    00:00 +12°C° 0 mm 2 m/s 650 mmHg 53%
    01:00 +12°C° 0 mm 2 m/s 650 mmHg 50%
    02:00 +12°C° 0 mm 2 m/s 650 mmHg 48%
    03:00 +12°C° 0 mm 2 m/s 650 mmHg 45%
    04:00 +10°C° 0 mm 2 m/s 649 mmHg 43%
    05:00 +10°C° 0 mm 2 m/s 649 mmHg 41%
    06:00 +10°C° 0 mm 2 m/s 649 mmHg 39%
    07:00 +13°C° 0 mm 2 m/s 650 mmHg 36%
    08:00 +16°C° 0 mm 1 m/s 652 mmHg 33%
    09:00 +19°C° 0 mm 1 m/s 653 mmHg 30%
    10:00 +19°C° 0 mm 2 m/s 653 mmHg 30%
    11:00 +20°C° 0 mm 2 m/s 653 mmHg 30%
    12:00 +23°C° 0 mm 2 m/s 653 mmHg 29%
    13:00 +23°C° 0 mm 2 m/s 652 mmHg 31%
    14:00 +22°C° 0 mm 3 m/s 652 mmHg 32%
    15:00 +22°C° 0 mm 3 m/s 651 mmHg 33%
    16:00 +20°C° 0 mm 2 m/s 650 mmHg 41%
    17:00 +18°C° 0 mm 2 m/s 650 mmHg 48%
    18:00 +16°C° 0 mm 1 m/s 650 mmHg 56%
    19:00 +15°C° 0 mm 1 m/s 650 mmHg 58%
    20:00 +14°C° 0 mm 1 m/s 650 mmHg 60%
    21:00 +13°C° 0 mm 1 m/s 650 mmHg 63%
    22:00 +12°C° 0 mm 1 m/s 650 mmHg 60%
    23:00 +12°C° 0 mm 2 m/s 650 mmHg 58%

    Depois de amanhã, 21 Fevereiro, Quarta-feira

    Tempo Temperatura Precipitação Vento Pressão Humidade
    00:00 +12°C° 0 mm 2 m/s 650 mmHg 56%
    01:00 +12°C° 0 mm 2 m/s 649 mmHg 53%
    02:00 +12°C° 0 mm 2 m/s 649 mmHg 50%
    03:00 +12°C° 0 mm 2 m/s 648 mmHg 47%
    04:00 +10°C° 0 mm 2 m/s 648 mmHg 44%
    05:00 +10°C° 0 mm 2 m/s 648 mmHg 41%
    06:00 +10°C° 0 mm 2 m/s 648 mmHg 38%
    07:00 +13°C° 0 mm 2 m/s 649 mmHg 34%
    08:00 +16°C° 0 mm 1 m/s 650 mmHg 30%
    09:00 +19°C° 0 mm 1 m/s 652 mmHg 26%
    10:00 +20°C° 0 mm 1 m/s 652 mmHg 27%
    11:00 +20°C° 0 mm 2 m/s 652 mmHg 27%
    12:00 +23°C° 0 mm 2 m/s 652 mmHg 27%
    13:00 +23°C° 0 mm 2 m/s 651 mmHg 29%
    14:00 +22°C° 0 mm 3 m/s 650 mmHg 31%
    15:00 +22°C° 0 mm 3 m/s 650 mmHg 33%
    16:00 +20°C° 0 mm 2 m/s 649 mmHg 40%
    17:00 +18°C° 0 mm 2 m/s 649 mmHg 48%
    18:00 +18°C° 0 mm 1 m/s 648 mmHg 55%
    19:00 +15°C° 0 mm 1 m/s 649 mmHg 58%
    20:00 +14°C° 0 mm 1 m/s 649 mmHg 60%
    21:00 +13°C° 0 mm 1 m/s 649 mmHg 63%
    22:00 +13°C° 0 mm 1 m/s 649 mmHg 61%
    23:00 +13°C° 0 mm 1 m/s 649 mmHg 59%

    22 Fevereiro, Quinta-feira

    Tempo Temperatura Precipitação Vento Pressão Humidade
    00:00 +12°C° 0 mm 2 m/s 649 mmHg 57%
    01:00 +12°C° 0 mm 2 m/s 649 mmHg 55%
    02:00 +12°C° 0 mm 2 m/s 648 mmHg 52%
    03:00 +12°C° 0 mm 2 m/s 648 mmHg 49%
    04:00 +12°C° 0 mm 2 m/s 648 mmHg 46%
    05:00 +12°C° 0 mm 2 m/s 648 mmHg 43%
    06:00 +12°C° 0 mm 2 m/s 648 mmHg 40%
    07:00 +14°C° 0 mm 1 m/s 649 mmHg 36%
    08:00 +16°C° 0 mm 1 m/s 650 mmHg 33%
    09:00 +19°C° 0 mm 1 m/s 651 mmHg 29%
    10:00 +20°C° 0 mm 1 m/s 651 mmHg 29%
    11:00 +20°C° 0 mm 2 m/s 652 mmHg 29%
    12:00 +21°C° 0 mm 2 m/s 652 mmHg 29%
    13:00 +21°C° 0 mm 2 m/s 651 mmHg 30%
    14:00 +21°C° 0 mm 3 m/s 650 mmHg 32%
    15:00 +21°C° 0 mm 3 m/s 650 mmHg 34%
    16:00 +20°C° 0,6 mm 2 m/s 649 mmHg 42%
    17:00 +18°C° 0,6 mm 2 m/s 649 mmHg 50%
    18:00 +16°C° 0,6 mm 1 m/s 648 mmHg 58%
    19:00 +15°C° 0,7 mm 1 m/s 649 mmHg 62%
    20:00 +14°C° 0,7 mm 1 m/s 649 mmHg 65%
    21:00 +12°C° 0,7 mm 2 m/s 649 mmHg 68%
    22:00 +12°C° 0,1 mm 2 m/s 649 mmHg 64%
    23:00 +12°C° 0,1 mm 2 m/s 649 mmHg 61%

    23 Fevereiro, Sexta-feira

    Tempo Temperatura Precipitação Vento Pressão Humidade
    00:00 +12°C° 0,1 mm 2 m/s 650 mmHg 57%
    01:00 +12°C° 0 mm 2 m/s 649 mmHg 54%
    02:00 +12°C° 0 mm 2 m/s 649 mmHg 51%
    03:00 +12°C° 0 mm 2 m/s 649 mmHg 48%
    04:00 +10°C° 0 mm 2 m/s 649 mmHg 46%
    05:00 +10°C° 0 mm 2 m/s 649 mmHg 44%
    06:00 +10°C° 0 mm 2 m/s 649 mmHg 42%
    07:00 +13°C° 0 mm 2 m/s 650 mmHg 38%
    08:00 +15°C° 0 mm 1 m/s 651 mmHg 35%
    09:00 +19°C° 0 mm 1 m/s 652 mmHg 31%
    10:00 +20°C° 0 mm 1 m/s 652 mmHg 30%
    11:00 +20°C° 0 mm 2 m/s 652 mmHg 30%
    12:00 +23°C° 0 mm 2 m/s 652 mmHg 29%
    13:00 +23°C° 0 mm 2 m/s 652 mmHg 31%
    14:00 +23°C° 0 mm 2 m/s 651 mmHg 33%
    15:00 +22°C° 0 mm 3 m/s 650 mmHg 36%
    16:00 +20°C° 0 mm 2 m/s 650 mmHg 43%
    17:00 +18°C° 0 mm 2 m/s 650 mmHg 50%
    18:00 +18°C° 0 mm 1 m/s 649 mmHg 57%
    19:00 +16°C° 0,1 mm 1 m/s 650 mmHg 58%
    20:00 +15°C° 0,1 mm 1 m/s 650 mmHg 60%
    21:00 +14°C° 0,1 mm 1 m/s 651 mmHg 61%
    22:00 +14°C° 0 mm 2 m/s 651 mmHg 59%
    23:00 +13°C° 0 mm 2 m/s 651 mmHg 57%

    24 Fevereiro, Sábado

    Tempo Temperatura Precipitação Vento Pressão Humidade
    00:00 +13°C° 0 mm 2 m/s 651 mmHg 55%
    01:00 +13°C° 0 mm 2 m/s 650 mmHg 52%
    02:00 +13°C° 0 mm 2 m/s 650 mmHg 49%
    03:00 +12°C° 0 mm 2 m/s 650 mmHg 46%
    04:00 +12°C° 0 mm 2 m/s 650 mmHg 43%
    05:00 +12°C° 0 mm 2 m/s 650 mmHg 40%
    06:00 +12°C° 0 mm 2 m/s 650 mmHg 36%
    07:00 +14°C° 0 mm 2 m/s 652 mmHg 32%
    08:00 +18°C° 0 mm 1 m/s 653 mmHg 28%
    09:00 +20°C° 0 mm 1 m/s 654 mmHg 24%
    10:00 +21°C° 0 mm 1 m/s 654 mmHg 25%
    11:00 +23°C° 0 mm 2 m/s 654 mmHg 25%
    12:00 +24°C° 0 mm 2 m/s 654 mmHg 26%
    13:00 +24°C° 0 mm 2 m/s 654 mmHg 27%
    14:00 +24°C° 0 mm 2 m/s 653 mmHg 29%
    15:00 +24°C° 0 mm 2 m/s 653 mmHg 30%
    16:00 +21°C° 0 mm 2 m/s 652 mmHg 37%
    17:00 +20°C° 0 mm 2 m/s 652 mmHg 44%
    18:00 +19°C° 0 mm 1 m/s 652 mmHg 51%
    19:00 +18°C° 0,1 mm 1 m/s 652 mmHg 54%
    20:00 +16°C° 0,1 mm 2 m/s 652 mmHg 56%
    21:00 +14°C° 0,1 mm 2 m/s 652 mmHg 59%
    22:00 +14°C° 0 mm 2 m/s 652 mmHg 55%
    23:00 +14°C° 0 mm 2 m/s 652 mmHg 52%
    Mostrar mais